This is the latest recevied weather packets stored in our database for station/object K6FAK-13. If no packets are shown the sender has not sent any weather packets the latest 1 day(s).
| Time | Temp. | Humidity | Pressure | Rain* | Wind** | Luminosity | Snow |
|---|---|---|---|---|---|---|---|
| 1836274755 | 23.89° C | 75% | 1016 hPa | 0 mm | 0 m/s | 0 W/m² | - |
| 1836274453 | 23.89° C | 75% | 1016 hPa | 0 mm | 0 m/s | 0 W/m² | - |
| 1836274306 | 23.33° C | 75% | 1016.1 hPa | 0 mm | 0 m/s | 0 W/m² | - |
| 1836274151 | 23.89° C | 74% | 1016.2 hPa | 0 mm | 0 m/s | 0 W/m² | - |
| 1778041988 | 15.56° C | 82% | 1019.1 hPa | 0 mm | 2.24 m/s, 196° | 0 W/m² | - |
| 1778041686 | 15.56° C | 82% | 1018.9 hPa | 0 mm | 2.24 m/s, 177° | 0 W/m² | - |
| 1778041385 | 15.56° C | 82% | 1018.8 hPa | 0 mm | 0.89 m/s, 210° | 0 W/m² | - |
| 1778041083 | 15.56° C | 82% | 1019.1 hPa | 0 mm | 1.79 m/s, 228° | 0 W/m² | - |
| 1778040780 | 15.56° C | 81% | 1018.8 hPa | 0 mm | 2.24 m/s, 211° | 0 W/m² | - |
| 1778040477 | 15.56° C | 81% | 1018.9 hPa | 0 mm | 2.24 m/s, 205° | 0 W/m² | - |
| 1778040174 | 15.56° C | 81% | 1018.8 hPa | 0 mm | 1.34 m/s, 262° | 0 W/m² | - |
| 1778039870 | 15.56° C | 81% | 1018.7 hPa | 0 mm | 1.79 m/s, 218° | 0 W/m² | - |
| 1778039567 | 15.56° C | 81% | 1018.7 hPa | 0 mm | 1.34 m/s, 208° | 0 W/m² | - |
| 1778039265 | 16.11° C | 81% | 1018.8 hPa | 0 mm | 2.24 m/s, 188° | 0 W/m² | - |
| 1778038962 | 16.11° C | 81% | 1018.7 hPa | 0 mm | 1.79 m/s, 274° | 0 W/m² | - |
| 1778038659 | 16.11° C | 81% | 1018.6 hPa | 0 mm | 2.24 m/s, 214° | 0 W/m² | - |
| 1778038356 | 16.11° C | 81% | 1018.7 hPa | 0 mm | 2.24 m/s, 225° | 0 W/m² | - |
| 1778038052 | 16.11° C | 81% | 1018.3 hPa | 0 mm | 2.68 m/s, 235° | 0 W/m² | - |
| 1778037750 | 16.11° C | 81% | 1018.3 hPa | 0 mm | 1.34 m/s, 215° | 0 W/m² | - |
| 1778037446 | 16.11° C | 80% | 1018.2 hPa | 0 mm | 1.79 m/s, 200° | 0 W/m² | - |
| 1778037144 | 16.11° C | 80% | 1018.2 hPa | 0 mm | 1.79 m/s, 230° | 0 W/m² | - |
| 1778036842 | 16.11° C | 80% | 1018.1 hPa | 0 mm | 2.24 m/s, 190° | 0 W/m² | - |
| 1778036539 | 16.11° C | 80% | 1018.1 hPa | 0 mm | 2.24 m/s, 216° | 0 W/m² | - |
| 1778036236 | 16.67° C | 80% | 1018 hPa | 0 mm | 3.13 m/s, 208° | 3 W/m² | - |
| 1778035932 | 16.67° C | 80% | 1017.8 hPa | 0 mm | 3.13 m/s, 216° | 4 W/m² | - |
* Rain latest hour (hover to see other rain measurements)
** Current wind speed in m/s (hover to see current wind gust speed)